FW9049 Weather Reports


time (UTC)temp
C
wind
direction
speed
KPH
gust
KPH
rain 1hr
cm
rain 24hr
cm
rain mn
cm
humidity
%
barometer
mb
20260503181536 25 345 4.8 8.0 0.00 0.00 0.00 49 1012.7
20260503181032 25 328 3.2 4.8 0.00 0.00 0.00 50 1012.9
20260503180529 24 329 1.6 3.2 0.00 0.00 0.00 51 1013.1
20260503180027 24 357 6.4 9.7 0.00 0.00 0.00 51 1013.1
20260503175524 23 347 4.8 8.0 0.00 0.00 0.00 53 1012.8
20260503175021 23 328 3.2 3.2 0.00 0.00 0.00 54 1013.2
20260503174518 22 336 1.6 3.2 0.00 0.00 0.00 54 1013.3
20260503174014 24 338 6.4 8.0 0.00 0.00 0.00 53 1013.1
20260503173509 22 350 1.6 1.6 0.00 0.00 0.00 55 1013.2
20260503173006 22 341 0.0 1.6 0.00 0.00 0.00 57 1013.2
20260503172504 23 337 3.2 3.2 0.00 0.00 0.00 56 1013.3
20260503172001 21 340 0.0 1.6 0.00 0.00 0.00 58 1013.1
20260503171457 21 351 3.2 4.8 0.00 0.00 0.00 58 1013.4
20260503170954 20 346 6.4 8.0 0.00 0.00 0.00 60 1013.4
20260503170450 20 330 1.6 1.6 0.00 0.00 0.00 60 1013.4
20260503150843 12 338 0.0 0.0 0.00 0.00 0.00 99 1013.8
20260503150339 12 338 0.0 0.0 0.00 0.00 0.00 99 1014.0
20260503140303 10 338 0.0 0.0 0.00 0.00 0.00 99 1013.9
20260503131233 8 338 0.0 0.0 0.00 0.00 0.00 99 1013.7
20260503130731 8 338 0.0 0.0 0.00 0.00 0.00 99 1013.9
20260503130227 8 338 0.0 0.0 0.00 0.00 0.00 99 1013.5
20260503120153 9 338 0.0 0.0 0.00 0.00 0.00 99 1013.6
20260503110621 10 338 0.0 0.0 0.00 0.00 0.00 99 1013.9
20260503110118 10 331 0.0 0.0 0.00 0.00 0.00 99 1014.0
20260503090508 11 339 0.0 0.0 0.00 0.00 0.00 99 1014.2
20260503081434 11 337 0.0 0.0 0.00 0.00 0.00 99 1014.2
20260503080932 12 337 0.0 0.0 0.00 0.00 0.00 99 1014.5
20260503080428 12 335 0.0 0.0 0.00 0.00 0.00 99 1014.0
20260503072904 12 340 0.0 0.0 0.00 0.00 0.00 98 1014.2
20260503072401 12 335 0.0 0.0 0.00 0.00 0.00 98 1014.3
20260503071858 12 336 0.0 0.0 0.00 0.00 0.00 97 1014.3
20260503071355 12 337 0.0 0.0 0.00 0.00 0.00 97 1014.2
20260503070851 12 333 0.0 0.0 0.00 0.00 0.00 97 1014.4
20260503070349 12 339 0.0 0.0 0.00 0.00 0.00 97 1014.0
20260503060314 13 336 0.0 0.0 0.00 0.03 0.03 92 1014.3
20260503054802 14 336 0.0 0.0 0.00 0.03 0.03 92 1014.6
20260503054258 14 334 0.0 1.6 0.00 0.03 0.03 92 1014.4
20260503053755 15 334 0.0 0.0 0.00 0.03 0.03 91 1014.1
20260503053249 15 330 0.0 1.6 0.00 0.03 0.03 91 1014.1
20260503052744 15 334 0.0 0.0 0.00 0.03 0.03 91 1014.0
20260503052242 15 335 0.0 0.0 0.00 0.03 0.03 90 1014.0
20260503051736 15 336 0.0 0.0 0.00 0.03 0.03 90 1013.9
20260503051234 15 342 0.0 1.6 0.00 0.03 0.03 89 1014.0
20260503050731 15 334 0.0 0.0 0.00 0.03 0.03 89 1013.9
20260503050227 15 336 0.0 0.0 0.00 0.03 0.03 88 1014.1
20260503045725 15 339 1.6 1.6 0.00 0.03 0.03 88 1014.0
20260503045222 15 343 1.6 1.6 0.00 0.03 0.03 88 1014.3
20260503044718 15 332 0.0 0.0 0.00 0.03 0.03 88 1014.2
20260503044216 15 341 1.6 1.6 0.00 0.03 0.03 87 1014.3
20260503043713 15 337 0.0 0.0 0.00 0.03 0.03 87 1014.3
20260503043210 16 338 0.0 0.0 0.00 0.03 0.03 86 1014.3
20260503042706 15 338 0.0 1.6 0.00 0.03 0.03 86 1014.4
20260503042203 16 338 0.0 0.0 0.00 0.03 0.03 85 1014.5
20260503041658 16 338 0.0 0.0 0.00 0.03 0.03 85 1014.5
20260503041156 16 339 0.0 0.0 0.00 0.03 0.03 84 1014.4
20260503040654 16 339 0.0 0.0 0.00 0.03 0.03 84 1014.2
20260503040151 16 340 0.0 0.0 0.00 0.03 0.03 83 1014.3
20260503035647 16 340 0.0 0.0 0.00 0.03 0.03 82 1014.0
20260503035145 16 340 0.0 0.0 0.00 0.03 0.03 81 1014.2
20260503034643 17 340 0.0 0.0 0.00 0.03 0.03 81 1014.2
20260503034139 17 340 0.0 0.0 0.00 0.03 0.03 80 1014.2
20260503033637 17 340 0.0 0.0 0.00 0.03 0.03 79 1014.4
20260503033134 17 291 3.2 3.2 0.00 0.03 0.03 79 1014.6
20260503032632 17 338 0.0 0.0 0.00 0.03 0.03 78 1014.2
20260503032131 17 334 0.0 0.0 0.00 0.03 0.03 77 1014.2
20260503031628 17 332 0.0 1.6 0.00 0.03 0.03 77 1014.0
20260503031125 17 330 1.6 1.6 0.00 0.03 0.03 76 1014.3
20260503030621 17 336 0.0 0.0 0.00 0.03 0.03 76 1014.4
20260503030118 17 332 0.0 1.6 0.00 0.03 0.03 75 1013.8
20260503025615 18 313 3.2 3.2 0.00 0.03 0.03 75 1013.8
20260503025113 18 337 0.0 0.0 0.00 0.03 0.03 75 1014.1
20260503024609 18 330 0.0 1.6 0.00 0.03 0.03 75 1014.0
20260503024106 18 339 1.6 3.2 0.00 0.03 0.03 74 1013.9
20260503023603 19 325 0.0 1.6 0.00 0.03 0.03 73 1013.9
20260503023100 20 304 3.2 4.8 0.00 0.03 0.03 71 1013.9
20260503022556 20 148 8.0 12.9 0.00 0.03 0.03 69 1014.1
20260503022051 20 274 3.2 4.8 0.00 0.03 0.03 67 1013.7
20260503021548 21 355 1.6 3.2 0.00 0.03 0.03 66 1013.7
20260503021045 21 340 1.6 3.2 0.00 0.03 0.03 65 1013.8
20260503020542 21 312 1.6 3.2 0.00 0.03 0.03 64 1013.6
20260503020039 21 341 0.0 0.0 0.00 0.03 0.03 64 1013.3
20260503015535 21 294 0.0 1.6 0.00 0.03 0.03 64 1013.1
20260503015033 21 329 0.0 0.0 0.00 0.03 0.03 63 1013.2
20260503014528 22 330 1.6 3.2 0.00 0.03 0.03 62 1013.2
20260503014027 22 323 1.6 1.6 0.00 0.03 0.03 62 1012.9
20260503013524 22 332 0.0 0.0 0.00 0.03 0.03 62 1012.8
20260503013022 22 330 0.0 1.6 0.00 0.03 0.03 60 1013.0
20260503012519 22 333 0.0 0.0 0.00 0.03 0.03 62 1013.0
20260503012015 22 333 0.0 0.0 0.00 0.03 0.03 60 1013.0
20260503011512 22 334 0.0 0.0 0.00 0.03 0.03 60 1013.0
20260503011009 23 325 0.0 1.6 0.00 0.03 0.03 59 1012.9
20260503010505 22 332 0.0 0.0 0.00 0.03 0.03 57 1013.0
20260503010003 23 338 0.0 0.0 0.00 0.03 0.03 57 1012.9
20260503005500 23 315 0.0 0.0 0.00 0.03 0.03 57 1013.0
20260503004956 23 335 3.2 3.2 0.00 0.03 0.03 56 1013.0
20260503004453 23 334 0.0 1.6 0.00 0.03 0.03 55 1013.1
20260503003951 23 330 0.0 1.6 0.00 0.03 0.03 54 1012.8
20260503003447 23 337 0.0 0.0 0.00 0.03 0.03 54 1012.9
20260503002944 23 326 1.6 1.6 0.00 0.03 0.03 54 1012.8
20260503002442 23 335 0.0 0.0 0.00 0.03 0.03 57 1013.2
20260503001938 22 339 0.0 0.0 0.00 0.03 0.03 57 1012.8
20260503001435 22 351 4.8 4.8 0.00 0.03 0.03 58 1013.2
20260503000932 23 329 1.6 3.2 0.00 0.03 0.03 57 1013.0
20260503000430 22 332 0.0 0.0 0.00 0.03 0.03 57 1013.2
20260502235926 22 352 3.2 3.2 0.00 0.03 0.03 57 1013.1
20260502235423 23 340 0.0 1.6 0.00 0.03 0.03 54 1013.1
20260502234920 23 312 1.6 1.6 0.00 0.03 0.03 55 1012.8
20260502234417 23 346 1.6 3.2 0.00 0.03 0.03 55 1013.4
20260502233914 23 344 3.2 3.2 0.00 0.03 0.03 57 1013.1
20260502233409 23 335 1.6 3.2 0.00 0.03 0.03 58 1013.2
20260502232907 22 335 0.0 1.6 0.00 0.03 0.03 58 1013.1
20260502232403 23 349 1.6 1.6 0.00 0.03 0.03 54 1013.3
20260502231900 23 327 4.8 4.8 0.00 0.03 0.03 58 1013.4
20260502231357 24 335 3.2 4.8 0.00 0.03 0.03 53 1013.5
20260502230855 23 331 0.0 1.6 0.00 0.03 0.03 55 1013.7
20260502230353 22 305 1.6 3.2 0.00 0.03 0.03 58 1013.4
20260502225850 22 358 8.0 14.5 0.00 0.03 0.03 58 1013.8
20260502225346 22 347 3.2 3.2 0.00 0.03 0.03 57 1013.8
20260502224844 22 325 1.6 3.2 0.00 0.03 0.03 57 1013.7
20260502224339 22 348 3.2 3.2 0.00 0.03 0.03 57 1013.9
20260502223837 23 328 4.8 4.8 0.00 0.03 0.03 54 1014.0
20260502223335 22 287 1.6 1.6 0.00 0.03 0.03 56 1014.0
20260502222832 21 334 3.2 3.2 0.00 0.03 0.03 59 1014.1
20260502222330 22 330 4.8 4.8 0.00 0.03 0.03 56 1014.4
20260502221825 22 309 1.6 1.6 0.00 0.03 0.03 54 1014.5
20260502221322 22 341 1.6 1.6 0.00 0.03 0.03 57 1014.6
20260502220820 23 297 4.8 4.8 0.00 0.03 0.03 53 1014.6
20260502220315 22 356 0.0 1.6 0.00 0.03 0.03 55 1014.6
20260502215812 22 357 3.2 4.8 0.00 0.03 0.03 56 1014.7
20260502215309 22 330 1.6 3.2 0.00 0.03 0.03 56 1014.9
20260502214806 23 271 4.8 4.8 0.00 0.03 0.03 53 1014.8
20260502214303 23 329 1.6 1.6 0.00 0.03 0.03 54 1014.8
20260502213800 22 307 3.2 3.2 0.00 0.03 0.03 57 1014.9
20260502213257 21 332 3.2 3.2 0.00 0.03 0.03 58 1015.2
20260502212756 22 336 1.6 1.6 0.00 0.03 0.03 57 1014.9
20260502212254 20 343 0.0 1.6 0.00 0.03 0.03 59 1015.0
20260502211749 20 342 1.6 1.6 0.00 0.03 0.03 63 1015.2
20260502211246 20 335 3.2 8.0 0.00 0.03 0.03 61 1015.2
20260502210744 22 344 3.2 3.2 0.00 0.03 0.03 57 1015.2
20260502210241 20 356 3.2 3.2 0.00 0.03 0.03 60 1015.7
20260502205738 20 341 3.2 3.2 0.00 0.03 0.03 61 1015.3
20260502205234 19 334 0.0 0.0 0.00 0.03 0.03 64 1015.7
20260502204731 20 330 1.6 3.2 0.00 0.03 0.03 61 1015.8
20260502204229 21 342 0.0 1.6 0.00 0.03 0.03 58 1015.9
20260502203726 20 335 1.6 3.2 0.00 0.03 0.03 60 1015.9
20260502203224 20 326 1.6 1.6 0.00 0.03 0.03 61 1016.0
20260502202718 19 24 3.2 4.8 0.00 0.03 0.03 63 1016.1
20260502202216 17 335 0.0 1.6 0.00 0.03 0.03 67 1016.0
20260502201714 18 358 3.2 4.8 0.00 0.03 0.03 68 1016.0
20260502201210 18 350 1.6 4.8 0.00 0.03 0.03 65 1016.3
20260502200706 18 324 1.6 1.6 0.00 0.03 0.03 64 1016.2
20260502200202 17 346 1.6 1.6 0.00 0.03 0.03 68 1016.4
20260502195701 18 252 3.2 3.2 0.00 0.03 0.03 66 1016.3
20260502195157 18 34 11.3 14.5 0.00 0.03 0.03 67 1016.5
20260502194654 18 334 0.0 1.6 0.00 0.03 0.03 65 1016.5
20260502194150 19 302 3.2 3.2 0.00 0.03 0.03 63 1016.6
20260502193647 19 351 1.6 1.6 0.00 0.03 0.03 62 1016.5
20260502193144 17 349 1.6 3.2 0.00 0.03 0.03 66 1016.8
20260502192639 17 4 1.6 3.2 0.00 0.03 0.03 68 1016.8
20260502192137 17 29 1.6 3.2 0.00 0.03 0.03 68 1016.9
20260502191634 17 317 1.6 1.6 0.00 0.03 0.03 66 1016.9
20260502191131 17 330 0.0 0.0 0.00 0.03 0.03 69 1016.9
20260502190628 17 341 1.6 1.6 0.00 0.03 0.03 70 1016.8
20260502190126 15 342 0.0 1.6 0.00 0.03 0.03 74 1017.0
20260502185620 15 326 1.6 3.2 0.00 0.03 0.03 77 1017.1
20260502185118 15 317 3.2 3.2 0.00 0.03 0.03 74 1016.9
20260502184614 15 311 3.2 3.2 0.00 0.03 0.03 75 1016.8
20260502184109 14 350 3.2 3.2 0.00 0.03 0.03 78 1016.9
20260502183606 14 332 0.0 0.0 0.00 0.03 0.03 79 1016.8
20260502183102 13 345 1.6 1.6 0.00 0.03 0.03 79 1016.9
20260502182557 13 337 1.6 1.6 0.00 0.03 0.03 80 1016.8
20260502182053 13 344 4.8 4.8 0.00 0.03 0.03 79 1016.8